Other Public Products
Issued by NWS Grand Forks, ND

Home | Current Version | Previous Version | Graphics & Text | Print | Product List | Glossary On
Versions: 1 2 3 4 5 6 7 8 9 10 11 12 13 14 15 16 17 18 19 20 21 22 23 24 25 26 27 28 29 30 31 32 33 34 35 36 37 38 39 40 41 42 43 44 45 46 47 48 49 50
000
FPUS83 KFGF 282331
OPUFGF
PRAIRIE TO PINES WEATHER ROUNDUP
NATIONAL WEATHER SERVICE EASTERN NORTH DAKOTA/GRAND FORKS ND
600 PM CDT THU JUL 28 2016

 **SATELLITE DATA USED TO AUGMENT SKY COVER AT AUTOMATED STATIONS**
 *****  WEATHER ACROSS EASTERN NORTH DAKOTA  *****

CITY           SKY/WX    TMP DP  RH WIND       PRES   REMARKS
GRAND FORKS    MOSUNNY   77  57  50 N10       30.08F
GRAND FORKS AF MOSUNNY   75  57  53 N9        30.10F
GRAND CITY NWS   N/A     75 N/A N/A VRB3        N/A
BUXTON           N/A     77  61  56 N9          N/A
DEVILS LAKE    SUNNY     72  57  59 N7        30.11F
FARGO          MOSUNNY   79  60  52 N16       30.05S
WAHPETON ARPT  CLOUDY    73  59  60 N3        30.05S
$$

 *****  WEATHER ACROSS CENTRAL AND WESTERN NORTH DAKOTA  *****

CITY           SKY/WX    TMP DP  RH WIND       PRES   REMARKS
JAMESTOWN      MOSUNNY   73  61  65 NE7       30.07S
BISMARCK       CLOUDY    73  55  53 N7        30.11S
MINOT          MOSUNNY   80  52  37 NE8       30.11F
MINOT AFB      SUNNY     74  52  45 VRB5      30.10
GARRISON         N/A     73  54  51 NE5       30.13S
WILLISTON      PTSUNNY   76  50  40 E3        30.12F
DICKINSON      CLOUDY    65  57  75 E6        30.14S
HETTINGER      CLOUDY    69  59  70 E12       30.15R
$$

 *****  OTHER OBSERVATIONS NORTHEAST NORTH DAKOTA  *****

CITY           SKY/WX    TMP DP  RH WIND       PRES   REMARKS
WALHALLA       FAIR      72  68  88 NE5       30.11F
LANGDON        FAIR      72  54  53 N7        30.13F
CAVALIER       FAIR      73  54  49 N6        30.10F
GRAFTON        FAIR      73  55  53 N9        30.11F
CANDO          FAIR      73  55  53 NE5       30.13F
FORT TOTTEN    NOT AVBL
ROLLA          FAIR      72  54  53 E6        30.14F
RUGBY          NOT AVBL
 ***** THE ABOVE OBSERVATIONS ARE NON NWS ARE NOT QUALITY
        CONTROLLED AND MAY MIS-REPORT RAIN FOR SNOW...
$$

 *****  OTHER OBSERVATIONS SOUTHEAST NORTH DAKOTA *****

CITY           SKY/WX    TMP DP  RH WIND       PRES   REMARKS
COOPERSTOWN    NOT AVBL
VALLEY CITY    FAIR      73  63  68 NE12      30.10R
OAKES            N/A    N/A N/A N/A MISG        N/A
GWINNER        FAIR      79  61  53 NE7       30.06S
SHEYENNE NWR     N/A     80  60  50 NE7       29.95S
BUFFALO          N/A     76  54  46 NE10        N/A
WYNDMERE         N/A     77  64  65 NE6         N/A
 ***** THE ABOVE OBSERVATIONS ARE NON NWS ARE NOT QUALITY
       CONTROLLED AND MAY MIS-REPORT RAIN FOR SNOW...
$$

  *****  WEATHER ACROSS NORTHERN MINNESOTA  *****

CITY           SKY/WX    TMP DP  RH WIND       PRES   REMARKS
FLAG ISLAND    SUNNY     72  50  46 N5        30.09F
WARROAD        SUNNY     72  55  56 E5        30.10F
ROSEAU         SUNNY     73  59  60 NE6       30.09F
HALLOCK        SUNNY     73  54  49 N8        30.09S
THF RVR FALLS  SUNNY     74  54  49 N7        30.10
HALSTAD          N/A     78  59  52 NE10        N/A
FOSSTON        MOSUNNY   75  59  57 N7        30.09S
BAUDETTE       SUNNY     75  56  51 N9        30.09F
WASKISH        SUNNY     75  55  50 W6        30.07S
CROOKSTON      SUNNY     75  57  53 N9        30.09S
$$
  *****  WEATHER ACROSS CENTRAL AND WEST MINNESOTA  *****

CITY           SKY/WX    TMP DP  RH WIND       PRES   REMARKS
BEMIDJI        MOSUNNY   75  55  50 N8        30.09R
PARK RAPIDS    MOSUNNY   79  53  40 NE5       30.07R
WADENA         MOSUNNY   73  57  56 E3        30.06S
DETROIT LAKES  SUNNY     75  57  53 N5        30.08S
MOORHEAD       SUNNY     77  61  57 N13       30.05F
FERGUS FALLS   SUNNY     77  61  57 N3        30.05F
ELBOW LAKE     FAIR      76  61  59 N8        30.05F
MORRIS MN      SUNNY     79  55  44 E3        30.05S
STAPLES        SUNNY     75  55  50 CALM      30.06S
WHEATON        SUNNY     79  63  57 CALM      30.06S
$$
  *****  WEATHER ELSEWHERE ACROSS MINNESOTA  *****

CITY           SKY/WX    TMP DP  RH WIND       PRES   REMARKS
DULUTH         CLOUDY    69  50  50 E16       30.08S
INTRNTL FALLS  SUNNY     76  52  43 CALM      30.08S
ELY            SUNNY     73  48  40 NE3       30.07F
CLOQUET        CLOUDY    68  48  49 E13       30.08S
BRAINERD       CLOUDY    73  58  59 SE3       30.06S
HIBBING        PTSUNNY   75  54  47 NE6       30.06S
ALEXANDRIA     MOSUNNY   74  56  53 E8        30.08S
SAINT CLOUD    MOSUNNY   74  58  57 NE5       30.05R
MINNEAPOLIS    PTSUNNY   75  57  53 NE10G21   30.02R
$$

  *****  WEATHER ACROSS SOUTH DAKOTA  *****

CITY           SKY/WX    TMP DP  RH WIND       PRES   REMARKS
SIOUX FALLS    CLOUDY    75  59  57 NE14      30.03R
BROOKINGS      MOSUNNY   74  58  57 NE8       30.05S
WATERTOWN      MOSUNNY   77  56  48 E9        30.06F
HURON          PTSUNNY   79  58  48 NE12      30.03R
SISSETON         N/A     77  59  53 SE6       30.04F
ABERDEEN       CLOUDY    77  58  51 E3        30.05F
MITCHELL       CLOUDY    79  60  52 NE8       30.03S
PIERRE         RAIN      66  63  90 W17       30.06S FOG
MOBRIDGE       PTSUNNY   80  54  40 NE10      30.06F
RAPID CITY     PTSUNNY   73  54  51 N9        30.11F
$$

  *****  SOME WEATHER IN NEARBY STATES *****

CITY           SKY/WX    TMP DP  RH WIND       PRES   REMARKS
GLASGOW MT     PTSUNNY   78  54  43 VRB6      30.10F
GREAT FALLS MT MOSUNNY   86  43  22 NE8       30.10F
CHEYENNE WY    TSTM      67  57  70 S12       30.26R
SCOTTSBLUFF NE SUNNY     80  53  39 VRB3      30.13F
OMAHA NE       PTSUNNY   83  61  47 N10       29.97R
DES MOINES IA  PTSUNNY   80  61  52 N13       29.95S
DAVENPORT IA   SUNNY     81  67  62 NW12      29.90R
CHICAGO IL     CLOUDY    75  70  84 NE7       29.89R
EAU CLAIRE WI  CLOUDY    67  59  75 SE5       30.01R
LA CROSSE WI   LGT RAIN  67  64  90 NE5       29.98R FOG
$$

  *****  SOME NATIONAL WEATHER *****

CITY           SKY/WX    TMP DP  RH WIND       PRES   REMARKS
LA GUARDIA NY  LGT RAIN  84  69  60 SW9G20    29.87R
RALEIGH NC     MOSUNNY   94  70  45 SW13      29.83S HX 100
ATLANTA GA     PTSUNNY   86  69  56 SW16G22   29.98F HX  90
NEW ORLEANS LA PTSUNNY   85  75  72 N9G22     30.00R HX  93
OKLAHOMA CITY  PTSUNNY   94  73  50 SE8       29.91F HX 103
ALBUQUERQUE NM MOSUNNY   95  45  17 E16G29    30.10F HX  91
SALT LAKE CITY MOSUNNY  100  34  10 VRB6      30.03F HX  94
LOS ANGELES CA MOSUNNY   76  63  64 W13       29.84F
BOISE ID       SUNNY     99  38  12 N15G21    29.98F HX  94
SEATTLE WA     SUNNY     86  59  39 N10       30.07F
$$

*** WEATHER ACROSS MANITOBA...SASKATCHEWAN AND ONTARIO ***
                ***ONTARIO***

CITY           SKY/WX    TMP DP  RH WIND       PRES   REMARKS
GERALDTON      MOSUNNY   72  52  49 W7        30.07F
THUNDER BAY    MOSUNNY   73  55  53 E12       30.06S
SIOUX LOOKOUT  MOSUNNY   73  48  40 NW3       30.10F
TORONTO        CLOUDY    82  59  44 E7        29.88R
BIG TROUT LK   SUNNY     73  52  46 SW6       30.06F
PICKLE LAKE    MOSUNNY   73  45  35 NE3       30.09F
DRYDEN         SUNNY     73  48  40 E3        30.10F
KENORA         MOSUNNY   73  48  40 NW5       30.11S
$$
                *** MANITOBA***

CITY           SKY/WX    TMP DP  RH WIND       PRES   REMARKS
BRANDON        MOSUNNY   75  54  46 SW3       30.11F
DAUPHIN        SUNNY     79  55  44 S7        30.08F
ISLAND LAKE    PTSUNNY   75  55  50 CALM      30.04F
PILOT MOUND      N/A     72  54  53 NE3         N/A
THE PAS        MOSUNNY   79  57  47 N5        30.01F
THOMPSON       LGT RAIN  70  63  78 W6        30.00S
WINNIPEG       MOSUNNY   73  50  43 N7        30.10F
LYNN LAKE      PTSUNNY   75  55  50 MISG      30.01F
CHURCHILL      MOSUNNY   57  45  62 NE13      30.08S
GILLAM         TSTM      63  59  88 NW8       30.02F
$$
                ***SASKATCHEWAN***

CITY           SKY/WX    TMP DP  RH WIND       PRES   REMARKS
ESTEVAN        PTSUNNY   75  54  46 SE5       30.12F
KINDERSLEY     PTSUNNY   66  59  77 N18G29    30.11R
LLOYDMINSTER   CLOUDY    70  59  68 S14G20    30.07S
PRINCE ALBERT  TSTM      64  63  94 SE3       30.04F
REGINA         MOSUNNY   77  52  41 S8        30.12S
YORKTON        SUNNY     77  54  44 SW5       30.10F   C1F1C2F2C3F3C4F4C5F5C6F6C7F7C8F8C9F9CaFaCbFbCcFcCdFdCe!



USA.gov is the U.S. government's official web portal to all federal, state and local government web resources and services.